Location: Dampvalley
(47.9094°N, 6.1967°E)
Time: 16:59:05
(UTC+00:00)

BlueWalker 3 - Visible Passes

Search period start: 08 December 2022 00:00
Search period end: 18 December 2022 00:00
Orbit: 501 x 518 km, 53.2° (Epoch: 08 December)

Date Brightness Start Highest point End Pass type
(mag) Time Alt. Az. Time Alt. Az. Time Alt. Az.
08 Dec 1.8 17:26:18 10° WNW 17:30:14 84° NNE 17:31:50 34° ESE visible
08 Dec 4.9 19:05:32 10° W 19:06:41 16° W 19:06:41 16° W visible
09 Dec 1.9 17:07:53 10° WNW 17:11:49 87° NNE 17:14:45 17° ESE visible
09 Dec 4.4 18:47:11 10° W 18:49:37 20° WSW 18:49:37 20° WSW visible
10 Dec 1.9 16:49:28 10° WNW 16:53:24 89° SSW 16:57:18 10° ESE visible
10 Dec 4.3 18:28:50 10° W 18:31:38 19° SW 18:32:46 17° SSW visible
11 Dec 2.0 16:31:02 10° WNW 16:34:58 85° SSW 16:38:52 10° ESE visible
11 Dec 4.6 18:10:29 10° W 18:13:10 18° SW 18:15:50 10° S visible
12 Dec 2.1 16:12:37 10° WNW 16:16:32 82° SSW 16:20:25 10° ESE visible
12 Dec 4.8 17:52:08 10° W 17:54:42 17° SW 17:57:15 10° S visible
13 Dec 4.9 17:33:48 10° W 17:36:14 16° SW 17:38:39 10° S visible
14 Dec 5.0 17:15:29 10° W 17:17:45 15° SW 17:20:01 10° SSW visible
15 Dec 5.2 16:57:10 10° W 16:59:16 14° SW 17:01:23 10° SSW visible
16 Dec 5.3 16:38:51 10° W 16:40:47 13° SW 16:42:42 10° SSW visible
17 Dec 5.5 16:20:34 10° WSW 16:22:17 13° SW 16:23:59 10° SSW visible
